Meath Environmental Platform

Observations for Trim Market St

Time AQI Temp °C Hum % Pres Pa CO μg/m³ H₂S μg/m³ NO μg/m³ NO₂ μg/m³ O₃ μg/m³ SO₂ μg/m³ PM1 μg/m³ PM2.5 μg/m³ PM10 μg/m³
Monday 13 July 2026
19:50 1 24.1 44 64,709 0 0 0 4.91 30.25 0 0.71 3.78 4.16
19:47 1 24.1 44 64,705 0 0 0 4.51 30.78 0 1.43 4.83 7.53
19:41 1 24.1 44 64,662 0 0 0 4.41 31.88 0 2.14 4.83 5.17
19:40 1 24.1 44 64,662 0 0 0 5.41 32.26 0 1.43 4.3 4.39
19:39 1 24.1 44 64,695 0 0 0 5.21 30.07 0 0.71 2.73 3
19:38 1 24.1 43 64,703 0 0 0 5.22 32.86 0 1.43 3.26 3.59
19:37 1 24.1 43 64,689 0 0 0 4.92 31.76 0 0.71 3.26 3.59
19:36 1 24.1 43 64,699 0 0 0 5.14 31.51 0 2.14 4.84 5.17
19:35 1 24.2 43 64,711 0 0 0 5.41 32.21 0 2.85 5.36 6.74
19:34 1 24.1 43 64,699 0 0 0 6.05 30.64 0 1.43 3.79 4.17
19:33 1 24.2 43 64,738 0 0 0 5.92 30.38 0 1.43 4.32 5.95
19:32 1 24.2 43 64,785 0 0 0 4.32 34.44 0 1.43 3.79 4.17
19:31 1 24.2 43 64,793 0 0 0 4.12 30.21 0 1.43 3.79 4.17
19:30 1 24.2 43 64,805 0 0 0 5.33 33.98 0 1.43 4.85 5.17
19:29 1 24.2 43 64,821 0 0 0 5.33 29.59 0 0.71 4.32 4.38
19:28 1 24.2 43 64,839 0 0 0 5.53 30.92 0 2.14 4.32 4.38
19:24 1 24.2 43 64,894 0 0 0 5.48 28.43 0 0.71 3.29 3.62
19:21 1 24.2 43 64,927 0 0 0 4.59 32.54 0 2.14 4.35 5.16
19:20 1 24.3 42 64,919 0 0 0 4.57 30.44 0 2.14 4.35 4.37
19:19 1 24.3 43 64,935 0 0 0 4.06 31.63 0 1.43 3.82 5.16